Flag for India Weather past 2 weeks in Dharamshala, Himachal Pradesh, India

Now
88 °F

Passing clouds.


Feels Like: 90 °F
Forecast: 68 / 89 °F
Wind: 3 mph from East

Location: Amritsar Airport


UV Index: 7 (High)

Visibility: 4 mi


Pressure: 29.83 "Hg

Humidity: 49%

Dew point: 66 °F

Location of DharamshalaLocation

Historic Weather in Dharamshala

°F

Dharamshala temperature yesterday

Maximum temperature yesterday: 97 °F (at 2:30 PM)
Minimum temperature yesterday: 64 °F (at 5:30 AM)
Average temperature yesterday: 81 °F

Past Weeks' High & Low Weather Summary

 TemperatureHumidityPressure
High97 °F (Apr 24, 2:30 PM)100% (Apr 18, 7:00 PM)32.43 "Hg (Apr 18, 7:00 PM)
Low57 °F (Apr 11, 6:00 AM)18% (Apr 24, 1:30 PM)29.71 "Hg (Apr 17, 2:30 AM)
Average75 °F62%29.88 "Hg
* Reported Apr 10 10:00 AM — Apr 25 10:00 AM, Dharamshala, Weather by CustomWeather, © 2014

Note: Actual official high and low records may vary slightly from our data, if they occured in-between our weather recording intervals... More about our weather records

Advertising

Historic Weather Conditions — Data for Previous 24 hours

 ConditionsComfort  
Time TempWeatherWind HumidityBarometerVisibility
10:00 AM
Apr 25
86 °FPassing clouds.5 mph52%29.83 "Hg4 mi
9:30 AM82 °FScattered clouds.3 mph55%29.83 "Hg4 mi
9:00 AM82 °FScattered clouds.3 mph55%29.83 "Hg4 mi
8:00 AM72 °FScattered clouds.No wind78%29.77 "Hg2 mi
7:00 AM66 °FFog.5 mph88%29.77 "Hg2 mi
6:30 AM66 °FFog.5 mph88%29.77 "Hg2 mi
6:00 AM68 °FThunderstorms. Partly cloudy.7 mph83%29.77 "Hg2 mi
5:30 AM68 °FThunderstorms. Partly cloudy.7 mph83%29.77 "Hg2 mi
4:30 AM72 °FThunderstorms. Partly cloudy.9 mph73%29.77 "Hg2 mi
4:00 AM72 °FThunderstorms. Partly cloudy.17 mph73%29.77 "Hg2 mi
3:30 AM72 °FThunderstorms. Partly cloudy.17 mph73%29.77 "Hg2 mi
2:30 AM73 °FPartly cloudy.17 mph69%29.77 "Hg2 mi
2:00 AM73 °FPartly cloudy.17 mph69%29.77 "Hg2 mi
1:30 AM75 °FPartly cloudy.21 mph61%29.80 "Hg2 mi
1:00 AM75 °FPartly cloudy.23 mph61%29.77 "Hg2 mi
12:30 AM77 °FPassing clouds.2 mph57%29.77 "Hg2 mi
12:00 AM79 °FPassing clouds.No wind51%29.77 "Hg2 mi
11:00 PM
Apr 24
79 °FPassing clouds.No wind45%29.77 "Hg3 mi
10:30 PM79 °FPassing clouds.No wind45%29.77 "Hg3 mi
10:00 PM81 °FPassing clouds.No wind42%29.74 "Hg3 mi
9:30 PM82 °FPassing clouds.No wind40%29.74 "Hg3 mi
9:00 PM84 °FPassing clouds.No wind35%29.74 "Hg3 mi
8:00 PM86 °FFog.2 mph29%29.71 "Hg4 mi
7:30 PM86 °FPartly sunny.2 mph29%29.71 "Hg4 mi
7:00 PM88 °FPartly sunny.2 mph27%29.71 "Hg4 mi
6:30 PM90 °FScattered clouds.3 mph24%29.71 "Hg6 mi
6:00 PM91 °FScattered clouds.3 mph21%29.71 "Hg6 mi
5:30 PM91 °FScattered clouds.5 mph21%29.71 "Hg6 mi
5:00 PM93 °FScattered clouds.5 mph20%29.71 "Hg6 mi
4:30 PM93 °FScattered clouds.5 mph20%29.71 "Hg6 mi
4:00 PM95 °FLight fog.7 mph19%29.74 "Hg6 mi
3:30 PM95 °FScattered clouds.8 mph19%29.74 "Hg6 mi
3:00 PM97 °FSunny.6 mph18%29.77 "Hg6 mi
2:30 PM97 °FSunny.6 mph18%29.77 "Hg6 mi
2:00 PM95 °FSunny.8 mph18%29.77 "Hg6 mi
1:30 PM95 °FSunny.10 mph18%29.77 "Hg6 mi
Weather by CustomWeather, © 2014

See weather overview